Date String (YYYY-MM-DD hh:mm:ss) UTC,Instrument flags,Ambient pressure (hPa),Sample flow (lpm),Bypass flow (lpm),Sample temperature (°C),Ambient temperature (°C),ASC tube jacket temperature (°C),LED temperature (°C),Box temperature (°C),Sample RH (%),Span deviation,Mass concentration (μg/m³),Mass concentration (μg/m³),Mass concentration (μg/m³)
DateTimeUTC,F1_M11,P_M11,Q1_M11,Q2_M11,T1_M11,T2_M11,T3_M11,T4_M11,T5_M11,U1_M11,ZSPAN_M11,X2_M11,X0_M11,X1_M11
2023-05-11 05:00:00,,0827.7,5.00,0.00,26.9,24.7,00.0,35.5,28.4,28.3,0000.0,0003.58,0008.04,0002.16
2023-05-11 05:01:00,,0827.6,5.00,0.00,26.8,24.6,00.0,35.5,28.4,28.5,0000.0,0003.59,0008.09,0002.19
2023-05-11 05:02:00,,0827.6,5.00,0.00,26.8,24.6,00.0,35.5,28.4,28.6,0000.0,0003.67,0008.36,0002.22
2023-05-11 05:03:00,,0827.5,5.00,0.00,26.8,24.5,00.0,35.5,28.3,28.7,0000.0,0003.71,0008.52,0002.23
2023-05-11 05:04:00,,0827.4,5.01,0.00,26.7,24.5,00.0,35.4,28.3,28.8,0000.0,0003.75,0008.54,0002.26
2023-05-11 05:05:00,,0827.5,5.00,0.00,26.7,24.5,00.0,35.4,28.3,28.9,0000.0,0003.77,0008.43,0002.29
2023-05-11 05:06:00,,0827.5,5.00,0.00,26.7,24.5,00.0,35.4,28.3,28.9,0000.0,0003.74,0008.03,0002.30
2023-05-11 05:07:00,,0827.5,5.00,0.00,26.7,24.4,00.0,35.3,28.2,29.0,0000.0,0003.72,0008.00,0002.30
2023-05-11 05:08:00,,0827.5,4.99,0.00,26.6,24.4,00.0,35.3,28.2,29.0,0000.0,0003.69,0007.86,0002.32
2023-05-11 05:09:00,,0827.5,5.00,0.00,26.6,24.4,00.0,35.3,28.2,29.0,0000.0,0003.69,0007.84,0002.35
2023-05-11 05:10:00,,0827.7,5.01,0.00,26.6,24.4,00.0,35.3,28.2,29.1,0000.0,0003.69,0007.85,0002.35
2023-05-11 05:11:00,,0827.7,5.01,0.00,26.5,24.4,00.0,35.2,28.1,29.2,0000.0,0003.71,0007.92,0002.34
2023-05-11 05:12:00,,0827.5,5.00,0.00,26.5,24.4,00.0,35.2,28.1,29.2,0000.0,0003.74,0007.99,0002.32
2023-05-11 05:13:00,,0827.6,4.97,0.00,26.5,24.3,00.0,35.2,28.1,29.2,0000.0,0003.68,0007.73,0002.29
2023-05-11 05:14:00,,0827.4,5.01,0.00,26.5,24.3,00.0,35.2,28.1,29.3,0000.0,0003.65,0007.61,0002.28
2023-05-11 05:15:00,,0827.4,5.02,0.00,26.4,24.3,00.0,35.1,28.0,29.3,0000.0,0003.60,0007.63,0002.25
2023-05-11 05:16:00,,0827.4,4.99,0.00,26.4,24.3,00.0,35.1,28.0,29.3,0000.0,0003.56,0007.64,0002.25
2023-05-11 05:17:00,,0827.4,4.99,0.00,26.4,24.2,00.0,35.1,28.0,29.4,0000.0,0003.55,0007.58,0002.26
2023-05-11 05:18:00,,0827.4,5.01,0.00,26.4,24.2,00.0,35.1,28.0,29.4,0000.0,0003.58,0007.64,0002.28
2023-05-11 05:19:00,,0827.4,5.02,0.00,26.4,24.2,00.0,35.0,28.0,29.5,0000.0,0003.61,0007.69,0002.27
2023-05-11 05:20:00,,0827.4,5.01,0.00,26.4,24.2,00.0,35.0,27.9,29.5,0000.0,0003.55,0007.56,0002.25
2023-05-11 05:21:00,,0827.4,4.99,0.00,26.3,24.2,00.0,35.0,27.9,29.6,0000.0,0003.56,0007.61,0002.25
2023-05-11 05:22:00,,0827.3,5.00,0.00,26.3,24.2,00.0,35.0,27.9,29.7,0000.0,0003.54,0007.56,0002.25
2023-05-11 05:23:00,,0827.3,5.00,0.00,26.3,24.2,00.0,35.0,27.9,29.6,0000.0,0003.48,0007.38,0002.25
2023-05-11 05:24:00,,0827.3,5.00,0.00,26.3,24.2,00.0,34.9,27.9,29.7,0000.0,0003.49,0007.44,0002.27
2023-05-11 05:25:00,,0827.2,5.00,0.00,26.3,24.2,00.0,34.9,27.9,29.7,0000.0,0003.50,0007.67,0002.29
2023-05-11 05:26:00,,0827.2,5.00,0.00,26.3,24.2,00.0,34.9,27.9,29.7,0000.0,0003.53,0008.10,0002.31
2023-05-11 05:27:00,,0827.2,5.00,0.00,26.2,24.1,00.0,34.9,27.9,29.8,0000.0,0003.54,0007.98,0002.30
2023-05-11 05:28:00,,0827.2,5.00,0.00,26.2,24.1,00.0,34.8,27.9,29.8,0000.0,0003.55,0008.03,0002.30
2023-05-11 05:29:00,,0827.1,5.00,0.00,26.2,24.2,00.0,34.8,27.9,29.8,0000.0,0003.54,0007.99,0002.29
2023-05-11 05:30:00,,0827.2,4.98,0.00,26.2,24.2,00.0,34.8,27.9,29.8,0000.0,0003.55,0008.01,0002.30
2023-05-11 05:31:00,,0827.1,4.99,0.00,26.2,24.2,00.0,34.8,27.9,29.9,0000.0,0003.57,0008.08,0002.31
2023-05-11 05:32:00,,0827.1,5.01,0.00,26.2,24.2,00.0,34.8,27.9,29.8,0000.0,0003.56,0008.05,0002.30
2023-05-11 05:33:00,,0827.1,5.00,0.00,26.2,24.2,00.0,34.8,27.8,29.9,0000.0,0003.51,0007.93,0002.28
2023-05-11 05:34:00,,0827.1,5.00,0.00,26.2,24.3,00.0,34.8,27.9,29.9,0000.0,0003.53,0007.98,0002.30
2023-05-11 05:35:00,,0827.1,4.99,0.00,26.2,24.3,00.0,34.7,27.8,29.9,0000.0,0003.46,0007.80,0002.29
2023-05-11 05:36:00,,0827.1,4.99,0.00,26.2,24.3,00.0,34.7,27.9,30.0,0000.0,0003.42,0007.31,0002.27
2023-05-11 05:37:00,,0827.1,5.01,0.00,26.2,24.3,00.0,34.7,27.9,29.9,0000.0,0003.37,0006.34,0002.26
2023-05-11 05:38:00,,0827.1,5.00,0.00,26.2,24.3,00.0,34.7,27.9,30.0,0000.0,0003.40,0006.53,0002.26
2023-05-11 05:39:00,,0827.0,5.01,0.00,26.2,24.3,00.0,34.7,27.9,30.0,0000.0,0003.42,0006.61,0002.28
2023-05-11 05:40:00,,0827.1,4.99,0.00,26.2,24.4,00.0,34.7,27.9,30.0,0000.0,0003.41,0006.58,0002.29
2023-05-11 05:41:00,,0827.0,4.99,0.00,26.2,24.4,00.0,34.7,27.9,30.0,0000.0,0003.40,0006.53,0002.29
2023-05-11 05:42:00,,0827.0,5.00,0.00,26.2,24.4,00.0,34.7,27.9,30.0,0000.0,0003.43,0006.69,0002.29
2023-05-11 05:43:00,,0827.1,5.01,0.00,26.2,24.4,00.0,34.7,27.9,30.0,0000.0,0003.44,0006.58,0002.30
2023-05-11 05:44:00,,0827.1,5.00,0.00,26.2,24.4,00.0,34.7,27.9,30.0,0000.0,0003.44,0006.59,0002.31
2023-05-11 05:45:00,,0827.0,5.00,0.00,26.2,24.4,00.0,34.7,27.9,30.0,0000.0,0003.41,0006.41,0002.30
2023-05-11 05:46:00,,0827.0,4.98,0.00,26.2,24.4,00.0,34.7,27.9,30.0,0000.0,0003.42,0006.48,0002.31
2023-05-11 05:47:00,,0827.0,5.00,0.00,26.2,24.4,00.0,34.7,27.9,30.0,0000.0,0003.42,0006.47,0002.32
2023-05-11 05:48:00,,0826.9,5.01,0.00,26.2,24.4,00.0,34.7,27.9,30.0,0000.0,0003.44,0006.69,0002.33
2023-05-11 05:49:00,,0826.9,5.01,0.00,26.2,24.4,00.0,34.7,27.8,30.1,0000.0,0003.49,0006.80,0002.35
2023-05-11 05:50:00,,0826.9,5.00,0.00,26.2,24.4,00.0,34.7,27.8,30.0,0000.0,0003.46,0006.74,0002.34
2023-05-11 05:51:00,,0826.9,5.00,0.00,26.2,24.4,00.0,34.6,27.8,30.0,0000.0,0003.48,0006.97,0002.32
2023-05-11 05:52:00,,0826.9,4.99,0.00,26.2,24.4,00.0,34.6,27.8,30.0,0000.0,0003.50,0006.99,0002.33
2023-05-11 05:53:00,,0826.9,5.00,0.00,26.2,24.4,00.0,34.6,27.9,30.0,0000.0,0003.51,0007.00,0002.33
2023-05-11 05:54:00,,0826.8,5.00,0.00,26.2,24.4,00.0,34.6,27.9,30.0,0000.0,0003.49,0006.87,0002.34
2023-05-11 05:55:00,,0826.8,5.01,0.00,26.2,24.4,00.0,34.6,27.9,30.0,0000.0,0003.51,0007.40,0002.33
2023-05-11 05:56:00,,0826.9,5.00,0.00,26.2,24.4,00.0,34.6,27.8,30.0,0000.0,0003.55,0007.53,0002.33
2023-05-11 05:57:00,,0826.9,5.01,0.00,26.2,24.4,00.0,34.6,27.8,29.9,0000.0,0003.56,0007.57,0002.32
2023-05-11 05:58:00,,0826.9,5.01,0.00,26.1,24.4,00.0,34.6,27.8,30.0,0000.0,0003.56,0007.57,0002.30
2023-05-11 05:59:00,,0826.9,4.99,0.00,26.1,24.3,00.0,34.6,27.8,30.0,0000.0,0003.58,0007.59,0002.30
